FW2897 Weather Reports


time (UTC)temp
C
wind
direction
speed
KPH
gust
KPH
rain 1hr
cm
rain 24hr
cm
rain mn
cm
humidity
%
barometer
mb
20210723163247 26 290 4.8 14.5 0.00 0.00 0.00 47 1021.7
20210723162750 27 353 4.8 16.1 0.00 0.00 0.00 46 1021.8
20210723162229 27 233 3.2 11.3 0.00 0.00 0.00 47 1021.7
20210723161709 27 1 4.8 9.7 0.00 0.00 0.00 48 1021.8
20210723161211 27 11 3.2 9.7 0.00 0.00 0.00 46 1021.9
20210723160705 27 268 3.2 14.5 0.00 0.00 0.00 46 1021.9
20210723160206 26 347 3.2 14.5 0.00 0.00 0.00 48 1022.0
20210723155647 27 354 3.2 11.3 0.00 0.00 0.00 47 1022.1
20210723155143 26 349 4.8 11.3 0.00 0.00 0.00 48 1022.0
20210723154619 26 70 4.8 11.3 0.00 0.00 0.00 46 1022.1
20210723154106 26 12 4.8 19.3 0.00 0.00 0.00 47 1022.2
20210723153607 26 17 4.8 19.3 0.00 0.00 0.00 50 1022.2
20210723153047 26 352 4.8 11.3 0.00 0.00 0.00 50 1022.2
20210723152531 26 359 3.2 9.7 0.00 0.00 0.00 49 1022.2
20210723152012 26 333 3.2 9.7 0.00 0.00 0.00 51 1022.3
20210723151522 26 354 1.6 8.0 0.00 0.00 0.00 50 1022.4
20210723150951 26 289 3.2 9.7 0.00 0.00 0.00 53 1022.4
20210723150451 26 16 3.2 9.7 0.00 0.00 0.00 50 1022.4
20210723145953 26 326 3.2 9.7 0.00 0.00 0.00 52 1022.4
20210723145426 26 317 3.2 9.7 0.00 0.00 0.00 53 1022.4
20210723144906 26 54 3.2 12.9 0.00 0.00 0.00 52 1022.5
20210723144342 25 35 3.2 12.9 0.00 0.00 0.00 54 1022.4
20210723143815 25 324 1.6 6.4 0.00 0.00 0.00 56 1022.4
20210723143253 26 359 3.2 9.7 0.00 0.00 0.00 52 1022.4
20210723142740 25 82 4.8 16.1 0.00 0.00 0.00 55 1022.4
20210723142216 25 329 3.2 11.3 0.00 0.00 0.00 52 1022.4
20210723141713 25 346 3.2 12.9 0.00 0.00 0.00 53 1022.5
20210723141147 25 28 3.2 12.9 0.00 0.00 0.00 55 1022.5
20210723140643 25 342 3.2 14.5 0.00 0.00 0.00 55 1022.6
20210723140141 25 127 3.2 14.5 0.00 0.00 0.00 55 1022.5
20210723135628 25 70 3.2 11.3 0.00 0.00 0.00 54 1022.6
20210723135128 25 139 3.2 9.7 0.00 0.00 0.00 57 1022.6
20210723134627 25 83 1.6 8.0 0.00 0.00 0.00 58 1022.7
20210723134103 24 66 1.6 8.0 0.00 0.00 0.00 55 1022.7
20210723133551 24 117 1.6 4.8 0.00 0.00 0.00 56 1022.7
20210723133051 24 46 1.6 4.8 0.00 0.00 0.00 59 1022.7
20210723132525 23 333 1.6 6.4 0.00 0.00 0.00 58 1022.8
20210723132023 23 325 1.6 6.4 0.00 0.00 0.00 60 1022.8
20210723131457 23 280 1.6 4.8 0.00 0.00 0.00 63 1022.9
20210723130951 22 321 0.0 4.8 0.00 0.00 0.00 64 1022.7
20210723130421 22 326 1.6 4.8 0.00 0.00 0.00 64 1022.8
20210723125918 21 30 1.6 4.8 0.00 0.00 0.00 67 1022.8
20210723125415 21 336 1.6 6.4 0.00 0.00 0.00 68 1022.7
20210723124848 21 307 1.6 6.4 0.00 0.00 0.00 69 1022.7
20210723124347 21 345 0.0 4.8 0.00 0.00 0.00 69 1022.7
20210723123818 20 301 0.0 4.8 0.00 0.00 0.00 70 1022.6
20210723123315 20 326 0.0 4.8 0.00 0.00 0.00 71 1022.6
20210723122811 20 334 1.6 6.4 0.00 0.00 0.00 72 1022.5
20210723122243 20 333 1.6 8.0 0.00 0.00 0.00 73 1022.5
20210723121718 20 338 1.6 8.0 0.00 0.00 0.00 72 1022.5
20210723121212 20 345 1.6 3.2 0.00 0.00 0.00 72 1022.5
20210723120646 20 341 1.6 6.4 0.00 0.00 0.00 72 1022.6
20210723120144 19 331 1.6 6.4 0.00 0.00 0.00 72 1022.5
20210723115642 19 1 0.0 3.2 0.00 0.00 0.00 73 1022.4
20210723115118 19 335 0.0 3.2 0.00 0.00 0.00 73 1022.5
20210723114608 19 329 0.0 0.0 0.00 0.00 0.00 74 1022.3
20210723114107 19 329 0.0 0.0 0.00 0.00 0.00 75 1022.3
20210723113539 19 329 0.0 0.0 0.00 0.00 0.00 76 1022.2
20210723113036 18 329 0.0 0.0 0.00 0.00 0.00 76 1022.3
20210723112513 18 329 0.0 1.6 0.00 0.00 0.00 76 1022.2
20210723112013 18 329 0.0 3.2 0.00 0.00 0.00 76 1022.2
20210723111440 18 329 0.0 3.2 0.00 0.00 0.00 76 1022.2
20210723110929 18 338 0.0 3.2 0.00 0.00 0.00 77 1022.2
20210723110431 18 336 0.0 4.8 0.00 0.00 0.00 77 1022.1
20210723105902 18 336 0.0 4.8 0.00 0.00 0.00 78 1022.1
20210723105402 18 346 1.6 4.8 0.00 0.00 0.00 78 1022.0
20210723104836 18 337 1.6 6.4 0.00 0.00 0.00 78 1022.1
20210723104306 17 334 0.0 6.4 0.00 0.00 0.00 80 1021.9
20210723103804 17 333 0.0 1.6 0.00 0.00 0.00 82 1021.8
20210723103300 17 333 0.0 1.6 0.00 0.00 0.00 82 1021.8
20210723102757 17 333 0.0 0.0 0.00 0.00 0.00 82 1021.8
20210723102254 17 333 0.0 0.0 0.00 0.00 0.00 82 1021.6
20210723101752 17 333 0.0 0.0 0.00 0.00 0.00 83 1021.7
20210723101229 17 333 0.0 0.0 0.00 0.00 0.00 83 1021.7
20210723100658 17 333 0.0 0.0 0.00 0.00 0.00 83 1021.6
20210723100201 17 333 0.0 1.6 0.00 0.00 0.00 83 1021.6
20210723095629 17 333 0.0 1.6 0.00 0.00 0.00 83 1021.6
20210723095128 17 333 0.0 0.0 0.00 0.00 0.00 83 1021.6
20210723094622 17 333 0.0 0.0 0.00 0.00 0.00 83 1021.5
20210723094119 17 333 0.0 1.6 0.00 0.00 0.00 83 1021.4
20210723093554 17 333 0.0 1.6 0.00 0.00 0.00 83 1021.4
20210723093051 17 333 0.0 1.6 0.00 0.00 0.00 83 1021.4
20210723092523 17 333 0.0 1.6 0.00 0.00 0.00 84 1021.3
20210723092021 17 333 0.0 1.6 0.00 0.00 0.00 84 1021.4
20210723091453 17 333 0.0 1.6 0.00 0.00 0.00 84 1021.3
20210723090955 16 333 0.0 1.6 0.00 0.00 0.00 84 1021.3
20210723090429 16 333 0.0 1.6 0.00 0.00 0.00 86 1021.2
20210723085910 16 337 0.0 0.0 0.00 0.00 0.00 87 1021.2
20210723085407 16 337 0.0 0.0 0.00 0.00 0.00 87 1021.2
20210723084845 16 337 0.0 0.0 0.00 0.00 0.00 87 1021.2
20210723084342 16 337 0.0 0.0 0.00 0.00 0.00 88 1021.1
20210723083840 16 337 0.0 0.0 0.00 0.00 0.00 88 1021.1
20210723083339 15 337 0.0 0.0 0.00 0.00 0.00 88 1021.1
20210723082821 15 337 0.0 0.0 0.00 0.00 0.00 87 1021.0
20210723082321 16 337 0.0 0.0 0.00 0.00 0.00 87 1021.0
20210723081813 16 337 0.0 0.0 0.00 0.00 0.00 87 1021.0
20210723081313 16 337 0.0 0.0 0.00 0.00 0.00 87 1021.1
20210723080802 16 337 0.0 0.0 0.00 0.00 0.00 87 1021.1
20210723080227 16 337 0.0 0.0 0.00 0.00 0.00 87 1021.0
20210723075727 16 337 0.0 0.0 0.00 0.00 0.00 87 1021.1
20210723075200 16 337 0.0 0.0 0.00 0.00 0.00 87 1021.1
20210723074643 16 337 0.0 0.0 0.00 0.00 0.00 87 1021.1
20210723074142 16 337 0.0 0.0 0.00 0.00 0.00 87 1021.1
20210723073617 16 337 0.0 0.0 0.00 0.00 0.00 88 1021.1
20210723073055 16 337 0.0 0.0 0.00 0.00 0.00 88 1021.0
20210723072539 16 337 0.0 0.0 0.00 0.00 0.00 88 1021.2
20210723072026 16 337 0.0 0.0 0.00 0.00 0.00 88 1021.1
20210723071523 16 337 0.0 0.0 0.00 0.00 0.00 88 1021.1
20210723071023 16 337 0.0 0.0 0.00 0.00 0.00 88 1021.1
20210723070457 16 337 0.0 0.0 0.00 0.00 0.00 88 1021.0
20210723065953 16 337 0.0 0.0 0.00 0.00 0.00 88 1021.0
20210723065452 16 337 0.0 0.0 0.00 0.00 0.00 87 1021.0
20210723064930 16 337 0.0 0.0 0.00 0.00 0.00 87 1021.0
20210723064404 16 337 0.0 0.0 0.00 0.00 0.00 86 1021.0
20210723063902 16 337 0.0 0.0 0.00 0.00 0.00 86 1021.1
20210723063339 16 337 0.0 0.0 0.00 0.00 0.00 86 1021.3
20210723062813 17 337 0.0 0.0 0.00 0.00 0.00 86 1021.2
20210723062245 17 337 0.0 0.0 0.00 0.00 0.00 86 1021.3
20210723061716 17 337 0.0 0.0 0.00 0.00 0.00 85 1021.2
20210723061213 17 337 0.0 0.0 0.00 0.00 0.00 85 1021.3
20210723060650 17 337 0.0 0.0 0.00 0.00 0.00 85 1021.4
20210723060120 17 337 0.0 0.0 0.00 0.00 0.00 84 1021.4
20210723055616 17 337 0.0 1.6 0.00 0.00 0.00 85 1021.4
20210723055113 17 337 0.0 1.6 0.00 0.00 0.00 85 1021.3
20210723054545 17 337 0.0 1.6 0.00 0.00 0.00 84 1021.3
20210723054043 17 337 0.0 1.6 0.00 0.00 0.00 85 1021.4
20210723053517 17 337 0.0 1.6 0.00 0.00 0.00 85 1021.4
20210723052951 17 271 0.0 0.0 0.00 0.00 0.00 85 1021.4
20210723052446 17 271 0.0 0.0 0.00 0.00 0.00 84 1021.4
20210723051920 17 271 0.0 0.0 0.00 0.00 0.00 84 1021.5
20210723051417 17 271 0.0 0.0 0.00 0.00 0.00 84 1021.5
20210723050905 17 271 0.0 0.0 0.00 0.00 0.00 84 1021.5
20210723050407 17 271 0.0 0.0 0.00 0.00 0.00 83 1021.7
20210723045840 17 271 0.0 0.0 0.00 0.00 0.00 83 1021.6
20210723045337 17 271 0.0 0.0 0.00 0.00 0.00 84 1021.6
20210723044809 17 271 0.0 0.0 0.00 0.00 0.00 85 1021.7
20210723044306 17 271 0.0 0.0 0.00 0.00 0.00 84 1021.7
20210723043755 17 271 0.0 0.0 0.00 0.00 0.00 84 1021.6
20210723043258 17 271 0.0 0.0 0.00 0.00 0.00 83 1021.6
20210723042729 17 271 0.0 0.0 0.00 0.00 0.00 82 1021.6
20210723042229 17 271 0.0 0.0 0.00 0.00 0.00 82 1021.6
20210723041659 17 271 0.0 0.0 0.00 0.00 0.00 82 1021.6
20210723041158 17 271 0.0 0.0 0.00 0.00 0.00 83 1021.6
20210723040629 17 271 0.0 0.0 0.00 0.00 0.00 82 1021.7
20210723040126 18 271 0.0 0.0 0.00 0.00 0.00 82 1021.6
20210723035600 18 271 0.0 1.6 0.00 0.00 0.00 83 1021.6
20210723035034 18 271 0.0 1.6 0.00 0.00 0.00 83 1021.6
20210723034529 18 271 0.0 0.0 0.00 0.00 0.00 82 1021.7
20210723034004 18 271 0.0 0.0 0.00 0.00 0.00 82 1021.7
20210723033436 18 271 0.0 0.0 0.00 0.00 0.00 80 1021.7
20210723032908 18 271 0.0 0.0 0.00 0.00 0.00 80 1021.7
20210723032407 18 271 0.0 0.0 0.00 0.00 0.00 80 1021.6
20210723031905 18 271 0.0 0.0 0.00 0.00 0.00 79 1021.7
20210723031400 18 271 0.0 0.0 0.00 0.00 0.00 79 1021.7
20210723030856 18 271 0.0 0.0 0.00 0.00 0.00 79 1021.7
20210723030355 18 271 0.0 0.0 0.00 0.00 0.00 79 1021.7
20210723025827 18 271 0.0 0.0 0.00 0.00 0.00 78 1021.6
20210723025305 18 271 0.0 0.0 0.00 0.00 0.00 78 1021.5
20210723024733 19 271 0.0 0.0 0.00 0.00 0.00 77 1021.4
20210723024232 19 271 0.0 0.0 0.00 0.00 0.00 77 1021.5
20210723023707 19 271 0.0 0.0 0.00 0.00 0.00 77 1021.4
20210723023139 19 271 0.0 0.0 0.00 0.00 0.00 76 1021.5
20210723022634 19 271 0.0 0.0 0.00 0.00 0.00 76 1021.5
20210723022112 19 271 0.0 0.0 0.00 0.00 0.00 76 1021.5
20210723021612 19 271 0.0 0.0 0.00 0.00 0.00 76 1021.4
20210723021102 19 271 0.0 0.0 0.00 0.00 0.00 75 1021.4
20210723020558 20 271 0.0 0.0 0.00 0.00 0.00 73 1021.4
20210723020044 20 271 0.0 0.0 0.00 0.00 0.00 73 1021.4
20210723015528 20 271 0.0 0.0 0.00 0.00 0.00 73 1021.4
20210723015003 20 271 0.0 0.0 0.00 0.00 0.00 73 1021.4
20210723014437 20 271 0.0 0.0 0.00 0.00 0.00 72 1021.3
20210723013935 20 271 0.0 0.0 0.00 0.00 0.00 72 1021.3
20210723013410 20 271 0.0 0.0 0.00 0.00 0.00 71 1021.3
20210723012844 20 271 0.0 0.0 0.00 0.00 0.00 70 1021.3
20210723012319 21 271 0.0 0.0 0.00 0.00 0.00 68 1021.2
20210723011823 21 271 0.0 0.0 0.00 0.00 0.00 68 1021.2
20210723011309 21 271 0.0 0.0 0.00 0.00 0.00 67 1021.2
20210723010807 21 271 0.0 0.0 0.00 0.00 0.00 66 1021.1
20210723010307 22 271 0.0 0.0 0.00 0.00 0.00 65 1021.1
20210723005806 22 271 0.0 0.0 0.00 0.00 0.00 63 1021.0
20210723005241 22 271 0.0 1.6 0.00 0.00 0.00 63 1020.9
20210723004725 22 271 0.0 1.6 0.00 0.00 0.00 62 1021.0
20210723004228 23 271 0.0 1.6 0.00 0.00 0.00 61 1020.9
20210723003701 23 271 0.0 1.6 0.00 0.00 0.00 60 1020.9
20210723003200 23 271 0.0 1.6 0.00 0.00 0.00 59 1020.9
20210723002645 23 271 0.0 3.2 0.00 0.00 0.00 59 1020.9
20210723002125 24 255 0.0 3.2 0.00 0.00 0.00 58 1021.0
20210723001610 24 279 1.6 6.4 0.00 0.00 0.00 57 1021.0
20210723001108 25 284 1.6 6.4 0.00 0.00 0.00 56 1021.0
20210723000608 25 281 0.0 4.8 0.00 0.00 0.00 55 1021.0
20210723000117 25 35 0.0 4.8 0.00 0.00 0.00 54 1020.9
20210722235559 25 281 1.6 6.4 0.00 0.00 0.00 54 1020.8
20210722235050 25 289 1.6 6.4 0.00 0.00 0.00 53 1020.8
20210722234549 26 282 1.6 4.8 0.00 0.03 0.00 52 1020.8
20210722234050 26 278 3.2 4.8 0.00 0.03 0.00 51 1020.8
20210722233551 26 279 1.6 4.8 0.00 0.03 0.00 49 1020.6
20210722233047 26 258 1.6 8.0 0.00 0.03 0.00 50 1020.7
20210722232525 26 259 1.6 6.4 0.00 0.03 0.00 49 1020.6
20210722232001 26 307 1.6 8.0 0.00 0.03 0.00 49 1020.5
20210722231440 26 249 1.6 8.0 0.00 0.03 0.00 49 1020.5
20210722230915 26 284 3.2 8.0 0.00 0.03 0.00 48 1020.4
20210722230352 27 284 1.6 8.0 0.00 0.03 0.00 47 1020.4
20210722225840 27 254 1.6 4.8 0.00 0.03 0.00 48 1020.3
20210722225339 27 293 3.2 12.9 0.00 0.03 0.00 48 1020.2
20210722224840 27 338 4.8 12.9 0.00 0.03 0.00 48 1020.3
20210722224321 27 281 3.2 8.0 0.00 0.03 0.00 49 1020.2
20210722223805 27 283 3.2 11.3 0.00 0.03 0.00 47 1020.2
20210722223307 27 262 3.2 12.9 0.00 0.03 0.00 46 1020.3
20210722222803 27 232 3.2 12.9 0.00 0.03 0.00 47 1020.2
20210722222300 27 323 3.2 8.0 0.00 0.03 0.00 46 1020.2
20210722221755 27 348 1.6 8.0 0.00 0.03 0.00 47 1020.2
20210722221255 27 278 3.2 8.0 0.00 0.03 0.00 48 1020.1
20210722220725 27 227 3.2 12.9 0.00 0.03 0.00 47 1020.2
20210722220223 27 289 1.6 8.0 0.00 0.03 0.00 46 1020.1
20210722215720 27 288 3.2 9.7 0.00 0.03 0.00 46 1020.0
20210722215216 27 320 3.2 9.7 0.00 0.03 0.00 47 1020.0
20210722214651 27 286 3.2 8.0 0.00 0.03 0.00 47 1020.0
20210722214149 27 242 3.2 9.7 0.00 0.03 0.00 45 1020.0
20210722213620 27 335 3.2 9.7 0.00 0.03 0.00 45 1020.0
20210722213117 27 328 3.2 12.9 0.00 0.03 0.00 46 1020.0
20210722212553 27 19 3.2 12.9 0.00 0.03 0.00 44 1020.1
20210722212023 27 8 3.2 11.3 0.00 0.03 0.00 46 1020.0
20210722211521 27 11 4.8 11.3 0.00 0.03 0.00 48 1020.1
20210722210953 27 348 4.8 11.3 0.00 0.03 0.00 48 1020.0
20210722210451 27 75 4.8 11.3 0.00 0.03 0.00 47 1020.0
20210722205925 27 10 4.8 11.3 0.00 0.03 0.00 47 1020.1
20210722205424 27 283 4.8 12.9 0.00 0.03 0.00 48 1020.1
20210722204919 27 268 3.2 12.9 0.00 0.03 0.00 48 1020.1
20210722204354 28 15 1.6 6.4 0.00 0.03 0.00 47 1020.1
20210722203848 28 47 3.2 9.7 0.00 0.03 0.00 47 1020.2
20210722203322 28 37 3.2 9.7 0.00 0.03 0.00 47 1020.1
20210722202820 27 271 3.2 9.7 0.00 0.03 0.00 48 1020.0
20210722202250 27 347 3.2 11.3 0.00 0.03 0.00 50 1020.0
20210722201749 27 8 3.2 11.3 0.00 0.03 0.00 49 1020.1
20210722201225 27 24 4.8 11.3 0.00 0.03 0.00 48 1020.1
20210722200656 27 263 4.8 16.1 0.00 0.03 0.00 48 1020.1
20210722200154 27 353 4.8 16.1 0.00 0.03 0.00 48 1020.1
20210722195630 26 30 3.2 11.3 0.00 0.03 0.00 49 1020.0
20210722195130 26 32 3.2 9.7 0.00 0.03 0.00 51 1020.1
20210722194553 27 25 4.8 19.3 0.00 0.03 0.00 51 1020.0
20210722194026 27 9 3.2 19.3 0.00 0.03 0.00 50 1019.9
20210722193527 28 313 1.6 11.3 0.00 0.03 0.00 47 1020.0
20210722192955 27 103 4.8 14.5 0.00 0.03 0.00 47 1020.0
20210722192455 27 15 3.2 14.5 0.00 0.03 0.00 45 1020.0
20210722191926 27 340 1.6 6.4 0.00 0.03 0.00 47 1019.9
20210722191421 27 91 3.2 8.0 0.00 0.03 0.00 47 1019.9
20210722190918 27 353 3.2 8.0 0.00 0.03 0.00 47 1020.0
20210722190354 27 25 3.2 9.7 0.00 0.03 0.00 46 1020.0
20210722185825 27 334 4.8 9.7 0.00 0.03 0.00 47 1020.1
20210722185258 27 22 3.2 11.3 0.00 0.03 0.00 49 1020.2
20210722184758 27 302 1.6 8.0 0.00 0.03 0.00 49 1020.1
20210722184229 27 296 1.6 9.7 0.00 0.03 0.00 50 1020.1
20210722183725 26 330 4.8 11.3 0.00 0.03 0.00 48 1020.2
20210722183200 27 25 4.8 11.3 0.00 0.03 0.00 48 1020.3
20210722182639 27 290 3.2 11.3 0.00 0.03 0.00 48 1020.2
20210722182139 27 302 3.2 11.3 0.00 0.03 0.00 52 1020.2
20210722181643 27 10 3.2 9.7 0.00 0.03 0.00 49 1020.1
20210722181137 27 358 3.2 12.9 0.00 0.03 0.00 49 1020.3
20210722180609 27 336 3.2 9.7 0.00 0.03 0.00 50 1020.4
20210722180106 27 328 3.2 9.7 0.00 0.03 0.00 51 1020.2
20210722175607 27 200 3.2 6.4 0.00 0.03 0.00 51 1020.1
20210722175110 27 95 1.6 8.0 0.00 0.03 0.00 54 1020.3
20210722174605 27 347 3.2 8.0 0.00 0.03 0.00 52 1020.4
20210722174041 26 322 3.2 9.7 0.00 0.03 0.00 51 1020.3
20210722173542 26 217 3.2 9.7 0.00 0.03 0.00 54 1020.4
20210722173020 26 309 3.2 9.7 0.00 0.03 0.00 52 1020.3
20210722172516 26 313 3.2 9.7 0.00 0.03 0.00 54 1020.4
20210722172019 26 160 1.6 8.0 0.00 0.03 0.00 56 1020.3
20210722171517 26 245 3.2 8.0 0.00 0.03 0.00 56 1020.3
20210722171013 26 335 3.2 9.7 0.00 0.03 0.00 56 1020.4
20210722170511 26 11 1.6 9.7 0.00 0.03 0.00 56 1020.5
20210722170009 25 337 3.2 11.3 0.00 0.03 0.00 56 1020.7
20210722165448 25 321 3.2 11.3 0.00 0.03 0.00 56 1020.7
20210722164951 25 22 1.6 11.3 0.00 0.03 0.00 56 1020.9
20210722164421 25 326 1.6 9.7 0.00 0.03 0.00 56 1020.8
20210722163921 25 32 1.6 6.4 0.00 0.03 0.00 59 1020.8
20210722163405 25 295 1.6 6.4 0.00 0.03 0.00 57 1020.8